User: anonymous   Login
Location: Az?znagar
(16.8373°N, 80.5091°E)
Time: 20:13:49
(UTC+00:00)
Language:

Delta 168 - Orbit

View from above orbital plane
View from above orbital plane
View from above satellite
View from above satellite

Ground track
Ground track

The orbit data is extracted from the following two-line orbital elements,

1 14051U 83041B   22147.84427132  .00003600  00000-0  32803-3 0  9992
2 14051  25.3331 309.5064 1079267  19.6122 344.2818 13.12622249815411
Epoch (UTC): 27 May 2022 20:15:45
Eccentricity: 0.1079267
inclination: 25.3331°
perigee height: 394 km
apogee height: 2032 km
right ascension of ascending node: 309.5064°
argument of perigee: 19.6122°
revolutions per day: 13.12622249
mean anomaly at epoch: 344.2818°
orbit number at epoch: 81541

The dashed part of the orbit path shows where the satellite is in the earth's shadow,  

DLR